Location: Dreilärchen
(47.9312°N, 8.6113°E)
Time: 01:59:40
(UTC+00:00)

SL-16 R/B - Pass Details

Date: 26 May 2022
Orbit: 839 x 850 km, 71.0° (Epoch: 26 June)

Event Time Altitude Azimuth Distance (km) Brightness Sun altitude
Exits shadow 00:16:20 17° 136° (SE) 2,035 3.9 -19.9°
Maximum altitude 00:18:55 22° 101° (E) 1,748 3.9 -19.8°
Drops below altitude 10° 00:23:11 10° 52° (NE) 2,473 5.4 -19.7°
Sets 00:26:07 0° 38° (NE) 3,416 6.6 -19.5°
